Weather WX

World > North America > United States > Missouri

Berkeley, Missouri Regional Weather

Lat: 38.74N, Lon: 90.34W
Wx Zone: MOZ063
Warning FLW WEATHER ALERT - (More Info. Click Here) Warning
Feedback

Berkeley, MO Regional Weather

Expires:201906240900;;989783
ASUS43 KEAX 240810
RWREAX

WEATHER ROUNDUP FOR EASTERN KANSAS AND NORTHWEST MISSOURI
NATIONAL WEATHER SERVICE KANSAS CITY/PLEASANT HILL MO
300 AM CDT MON JUN 24 2019


MOZ041-047>049-056>058-063>065-088>090-097-240900-
...EASTERN AND SOUTHERN MISSOURI...
  
CITY           SKY/WX    TMP DP  RH WIND       PRES   REMARKS
ST. LOUIS INTL CLOUDY    69  65  86 SW7       29.74S                  
SPIRIT OF STL  CLEAR     70  66  87 SW5       29.72F                  
COLUMBIA       CLEAR     67  64  90 SW7       29.72F                  
ROLLA          CLEAR     65  63  93 S7        29.77F                  
OSAGE BEACH    PTCLDY    65  65 100 S3        29.74F                  
SPRINGFIELD    CLEAR     66  62  87 S9        29.78F                  
BRANSON        PTCLDY    64  63  94 CALM      29.82F                  
JOPLIN         MOCLDY    68  66  93 SW13G18   29.79F                  
WEST PLAINS    CLOUDY    66  63  90 W3        29.82R                  

$$


SKY/WX - Weather  TMP - Temperature  DP - Dew Point  RH - Relative Humidity
WIND - Wind Direction/Speed PRES - Barometric Pressure VSB - Visibility
WCI - Wind Chill Index E13G22 Wind - East Wind 13 mph/Gusts of 22 mph